Regional Weather Roundup
Issued by NWS

Home | Current Version | Previous Version | Graphics & Text | Print | Product List | Glossary Off
Versions: 1 2 3 4 5 6 7 8 9 10 11 12 13 14 15 16 17 18 19 20 21 22 23 24 25 26 27 28 29 30 31 32 33 34 35 36 37 38 39 40 41 42 43 44 45 46 47 48 49 50

000
ASUS43 KMKX 070811
RWRWI

WISCONSIN REGIONAL WEATHER ROUNDUP
NATIONAL WEATHER SERVICE MILWAUKEE/SULLIVAN WI
300 AM CDT TUE JUL 07 2015

NOTE: "FAIR" INDICATES FEW OR NO CLOUDS BELOW 12,000 FEET WITH NO
SIGNIFICANT WEATHER AND/OR OBSTRUCTIONS TO VISIBILITY.

WIZ001-002-006>008-014>016-023>028-070900-
NORTHWEST WISCONSIN

CITY           SKY/WX    TMP DP  RH WIND       PRES   REMARKS
SUPERIOR ARPT  CLOUDY    56  44  64 N8        30.07R
ASHLAND        PTCLDY    51  46  83 NW3       30.05R
HAYWARD        CLEAR     48  45  89 CALM      30.05R
SIREN          MOCLDY    53  45  75 N6        30.07R
CUMBERLAND     CLEAR     50  45  81 N3        30.06R
RICE LAKE      CLEAR     53  45  75 N6        30.06R
CHETEK         CLEAR     54  47  77 NW6       30.05R
LADYSMITH      PTCLDY    52  47  84 N7        30.05R
EAU CLAIRE     CLEAR     55  48  77 N6        30.02R
MENOMONIE      CLEAR     55  49  81 NW6       30.05R
NEW RICHMOND   CLEAR     51  49  90 NW3       30.07R
OSCEOLA        CLOUDY    55  49  80 NW5       30.11R
$$

WIZ003>005-009-010-017-018-070900-
NORTH CENTRAL WISCONSIN

CITY           SKY/WX    TMP DP  RH WIND       PRES   REMARKS
MANITOWISH WTR CLOUDY    50  48  93 N6        30.01S
ARBOR VITAE    CLOUDY    52  47  83 N10       30.00S
WOODRUFF       CLOUDY    52  47  83 N10       30.00S
RHINELANDER    CLOUDY    53  47  79 N9        30.00R
EAGLE RIVER    CLOUDY    52  48  87 N8        29.99R
LAND O LAKES   CLOUDY    52  47  83 N8        30.01R
PHILLIPS       CLEAR     51  47  88 N6        30.01R
TOMAHAWK       PTCLDY    51  47  87 N7        30.00R
MEDFORD        CLEAR     52  49  87 N10G16    30.01R
MERRILL        CLEAR     53  52  95 N6        29.99R
$$

WIZ029-030-035-036-043>047-070900-
CENTRAL WISCONSIN

CITY           SKY/WX    TMP DP  RH WIND       PRES   REMARKS
WAUSAU         MOCLDY    56  53  90 NW8       29.96R FOG
MOSINEE        PTCLDY    54  54 100 NW9       29.98S FOG
MARSHFIELD     CLEAR     56  52  86 N9        29.99R FOG
STEVENS POINT  CLEAR     54  53  95 NW7       29.97R FOG
WAUPACA        CLOUDY    63  57  81 NW6       29.94R HAZE
WAUTOMA        CLOUDY    62  58  87 N6        29.95R FOG
WISC RAPIDS    PTCLDY    57  53  86 N9        29.97R FOG
CAMP DOUGLAS   CLEAR     56  56 100 NW7       29.97R FOG
$$

WIZ011>013-019>022-031-037>040-048>050-070900-
NORTHEAST WISCONSIN

CITY           SKY/WX    TMP DP  RH WIND       PRES   REMARKS
ANTIGO         MOCLDY    54  54  97 N6        29.96R FOG
SHAWANO        CLOUDY    62  56  80 N10       29.94R HAZE
OCONTO         CLOUDY    59  57  94 N10G16    29.92R
STURGEON BAY   CLOUDY    59  48  67 N16G29    29.93R
GREEN BAY      CLOUDY    62  57  83 N9        29.92R HAZE
MANITOWOC      LGT RAIN  59  58  96 MISG      29.91R FOG
APPLETON       CLOUDY    61  54  77 N8        29.93R HAZE
CLINTONVILLE   CLOUDY    61  54  77 N9        29.94R HAZE
OSHKOSH        CLOUDY    62  56  80 N7        29.92R HAZE
$$

WIZ032>034-041-042-053>061-070900-
SOUTHWEST WISCONSIN

CITY           SKY/WX    TMP DP  RH WIND       PRES   REMARKS
LA CROSSE      CLOUDY    61  58  90 N7        29.99R FOG
SPARTA         MOCLDY    52  51  96 CALM      29.99S FOG
VIROQUA        CLEAR     56  56 100 N7        29.98S
BOSCOBEL       PTCLDY    60  56  86 N3        29.96S FOG
PRAIRIE DU CHI PTCLDY    60  55  83 NW3       29.96S HAZE
PLATTEVILLE    MOCLDY    60  57  92 N8        29.94R
$$

WIZ056-057-062-063-064-067-068-070900-
SOUTH CENTRAL WISCONSIN

CITY           SKY/WX    TMP DP  RH WIND       PRES   REMARKS
REEDSBURG      MOCLDY    58  56  94 N9        29.95R FOG
BARABOO/DELLS  CLOUDY    59  55  87 NW6       29.94S FOG
LONE ROCK      CLOUDY    60  56  86 N7        29.95S FOG
MINERAL POINT  MOCLDY    61  55  82 N8        29.94R FOG
MADISON        CLOUDY    62  57  83 N9        29.92R HAZE
MIDDLETON      CLOUDY    63  59  86 N7        29.93R
WATERTOWN      CLOUDY    59  59 100 N9G21     29.90R FOG
MONROE         CLOUDY    61  57  88 N14G22    29.91R FOG
JANESVILLE     CLOUDY    61  59  94 N12G18    29.89R FOG
$$

WIZ051-052-058>065-066-070>072-070900-
SOUTHEAST WISCONSIN

CITY           SKY/WX    TMP DP  RH WIND       PRES   REMARKS
MILWAUKEE      LGT RAIN  59  57  93 N18G26    29.87R FOG
WAUKESHA       DRIZZLE   59  57  94 N13       29.89R
MILWAUKEE/TIMM DRIZZLE   59  55  88 N15       29.88R
RACINE         LGT RAIN  60  57  89 N20G29    29.90R FOG
BURLINGTON     RAIN      62  60  94 N10       29.88R
KENOSHA        HVY RAIN  61  59  93 NE15G29   29.88R FOG
FOND DU LAC    LGT RAIN  61  58  90 N8        29.92R FOG
SHEBOYGAN      LGT RAIN  59  57  93 N8        29.90S FOG
WEST BEND      DRIZZLE   59  55  88 N8        29.90R
JUNEAU         CLOUDY    58  57  96 N10       29.93R FOG
$$

LSZ147-162-070900-
LAKE SUPERIOR

STATION/POSITION TIME  TEMP    WIND        PRES    WAVE
                       AIR SEA DIR/SP/G            HT/PER
                 (UTC) (F)     (DEG/KT/KT) (MB)    (FT/S)
W MID LAKE BUOY  0750   46 39  320/ 10/ 12 1016.3R   1/ 3
DEVILS ISLAND    0800   56     330/ 14/ 17 1017.3R
PORT WING        0700   58     330/ 11/ 12 1017.6
SAXON HARBOR     0700   59     360/ 11/ 14 1016.6R
$$

LMZ867-665-643>646-070900-
LAKE MICHIGAN

STATION/POSITION TIME  TEMP    WIND        PRES    WAVE
                       AIR SEA DIR/SP/G            HT/PER
                 (UTC) (F)     (DEG/KT/KT) (MB)    (FT/S)
CHAMBERS ISLAND  0700   61     340/ 19/ 23 1012.2S
N MID LAKE BUOY  0750   54 54  320/ 17/ 19 1011.4R   3/ 4
NORTHPORT PIER   0700   60     340/ 23/ 25 1012.2R
SISTER BAY       0729   58      10/ 20/ 27   N/A
ALGOMA LAKESHORE 0741          360/  9/ 13   N/A
KEWAUNEE LAKESHO 0700   60     360/  8/ 12 1011.2R
SHEBOYGAN LAKESH 0800   56     360/  9/  9 1012.8R
PORT WASHINGTON  0700   61      30/  9/ 14 1011.9
ATWATER BUOY     0800   58 57   10/ 17/ 23 1012.7R
MILWAUKEE LAKESH 0700   60      10/ 17/ 22   N/A
KENOSHA   LAKESH 0800   60      10/ 21/ 26 1011.2R
$$

TC  - TEMPERATURE IN CELSIUS
VSB - VISIBILITY IN STATUTE MILES
WCI - WIND CHILL INDEX
HX  - HEAT INDEX




USA.gov is the U.S. government's official web portal to all federal, state and local government web resources and services.